Language: 


Des rapports , des résumés tant et plus, au choix de chacun....


Données statistiques de la station
Quotidien Rapport Octobre 11, 2017 Unités:  Métrique    Anglais   les deux
« Précédent Jour
Suivant Jour »
Quotidien Hebdomadaire Mensuel Annuel Actuel
  Haut: Bas: Moyen:
Température: 17.3 °C 0.0 °C 15 °C
Pt de rosée: 13.0 °C 11.0 °C 12.4 °C
Humidité: 94 % 0 % 82 %
Vitesse du vent: 28.5 km/h 0.0 km/h 12.5 km/h
Rafales: 30.6 km/h - -
Vent:- - SW
Pression: 1016.8 hPa 0.0 hPa -
Précipitation: 0.0 mm    
Historical Graphs
 
 
Données statistiques pour Octobre 11, 2017
Heure Température Point de rosée Pression Vent Vitesse du vent Refales Humidité Pluie (taux horaire)
00:04 14.3 °C 13.0 °C 1016.8 hPa SW 6.9 km/h 12.6 km/h 94 % 0.0 mm
00:09 14.3 °C 13.0 °C 1016.8 hPa WSW 9.0 km/h 12.2 km/h 93 % 0.0 mm
00:14 14.3 °C 13.0 °C 1016.8 hPa SW 7.9 km/h 13.7 km/h 93 % 0.0 mm
00:19 14.3 °C 13.0 °C 1016.8 hPa SSW 14.0 km/h 14.0 km/h 93 % 0.0 mm
00:29 14.3 °C 13.0 °C 1016.8 hPa South 10.1 km/h 14.0 km/h 93 % 0.0 mm
00:34 14.2 °C 13.0 °C 1016.8 hPa SW 12.2 km/h 14.0 km/h 92 % 0.0 mm
00:39 14.1 °C 13.0 °C 1016.8 hPa SW 17.2 km/h 17.2 km/h 92 % 0.0 mm
00:44 14.1 °C 13.0 °C 1016.8 hPa SSW 12.6 km/h 17.2 km/h 91 % 0.0 mm
00:49 14.0 °C 13.0 °C 1016.8 hPa SSW 10.5 km/h 17.2 km/h 91 % 0.0 mm
00:55 14.0 °C 13.0 °C 1016.8 hPa SW 11.6 km/h 16.6 km/h 91 % 0.0 mm
01:00 14.0 °C 13.0 °C 1016.8 hPa SW 10.1 km/h 19.5 km/h 91 % 0.0 mm
01:10 13.9 °C 13.0 °C 1016.8 hPa SW 10.5 km/h 16.9 km/h 92 % 0.0 mm
01:15 13.9 °C 13.0 °C 1016.8 hPa WSW 15.4 km/h 16.6 km/h 92 % 0.0 mm
01:20 13.8 °C 13.0 °C 1016.8 hPa SSW 10.5 km/h 16.6 km/h 92 % 0.0 mm
01:25 13.8 °C 13.0 °C 1016.8 hPa SSW 16.6 km/h 17.2 km/h 92 % 0.0 mm
01:30 13.8 °C 13.0 °C 1016.8 hPa SSW 10.1 km/h 17.2 km/h 92 % 0.0 mm
01:35 13.7 °C 13.0 °C 1016.8 hPa SSW 8.7 km/h 16.9 km/h 92 % 0.0 mm
01:40 13.7 °C 13.0 °C 1016.8 hPa SW 9.7 km/h 16.9 km/h 93 % 0.0 mm
01:45 13.7 °C 13.0 °C 1016.8 hPa WSW 9.3 km/h 16.9 km/h 93 % 0.0 mm
01:50 13.7 °C 13.0 °C 1016.8 hPa SW 9.3 km/h 13.0 km/h 93 % 0.0 mm
01:55 13.5 °C 13.0 °C 1016.8 hPa WSW 12.6 km/h 14.0 km/h 93 % 0.0 mm
02:00 13.5 °C 13.0 °C 1016.8 hPa SSW 8.7 km/h 16.9 km/h 94 % 0.0 mm
02:05 13.5 °C 13.0 °C 1016.8 hPa SSW 14.0 km/h 16.9 km/h 94 % 0.0 mm
02:11 13.5 °C 13.0 °C 1016.8 hPa SSW 12.2 km/h 15.1 km/h 94 % 0.0 mm
02:16 13.6 °C 13.0 °C 1016.8 hPa SSW 13.7 km/h 16.6 km/h 94 % 0.0 mm
02:21 13.6 °C 13.0 °C 1016.8 hPa SSW 9.0 km/h 20.6 km/h 94 % 0.0 mm
02:26 13.6 °C 13.0 °C 1016.8 hPa South 8.7 km/h 20.6 km/h 94 % 0.0 mm
02:31 13.6 °C 13.0 °C 1016.8 hPa SW 10.5 km/h 19.8 km/h 94 % 0.0 mm
02:36 13.6 °C 13.0 °C 1016.8 hPa WSW 10.5 km/h 15.8 km/h 94 % 0.0 mm
02:41 13.6 °C 13.0 °C 1016.8 hPa WSW 6.4 km/h 15.8 km/h 94 % 0.0 mm
02:46 13.7 °C 13.0 °C 1016.1 hPa Calm   13.0 km/h 94 % 0.0 mm
02:51 13.7 °C 13.0 °C 1016.1 hPa WSW 6.1 km/h 14.0 km/h 94 % 0.0 mm
02:56 13.7 °C 13.0 °C 1016.1 hPa SW 11.6 km/h 14.0 km/h 94 % 0.0 mm
03:01 0.0 °C 13.0 °C 0.0 hPa Calm     0 % 0.0 mm
03:06 13.7 °C 13.0 °C 1016.1 hPa SW 12.6 km/h 15.1 km/h 94 % 0.0 mm
03:11 13.8 °C 13.0 °C 1016.1 hPa WSW 10.1 km/h 15.8 km/h 94 % 0.0 mm
03:16 13.8 °C 13.0 °C 1016.1 hPa SW 15.4 km/h 15.8 km/h 94 % 0.0 mm
03:21 13.9 °C 13.0 °C 1016.1 hPa SSW 7.9 km/h 15.4 km/h 94 % 0.0 mm
03:26 13.8 °C 13.0 °C 1016.1 hPa South 13.7 km/h 14.0 km/h 94 % 0.0 mm
03:31 13.8 °C 13.0 °C 1016.1 hPa SW 9.7 km/h 14.0 km/h 94 % 0.0 mm
03:37 13.8 °C 13.0 °C 1016.1 hPa SW 12.6 km/h 14.0 km/h 94 % 0.0 mm
03:42 13.8 °C 13.0 °C 1016.1 hPa SW 10.5 km/h 14.0 km/h 94 % 0.0 mm
03:47 13.7 °C 13.0 °C 1016.1 hPa SW 8.7 km/h 14.0 km/h 94 % 0.0 mm
03:52 13.7 °C 13.0 °C 1016.1 hPa SSW 6.4 km/h 12.2 km/h 94 % 0.0 mm
03:53 13.7 °C 13.0 °C 1016.1 hPa SW 11.9 km/h 12.2 km/h 94 % 0.0 mm
03:58 13.8 °C 13.0 °C 1016.1 hPa WSW 9.0 km/h 12.2 km/h 94 % 0.0 mm
04:03 13.8 °C 13.0 °C 1016.1 hPa SSW 12.6 km/h 14.0 km/h 94 % 0.0 mm
04:08 13.8 °C 13.0 °C 1016.1 hPa SSW 11.9 km/h 14.0 km/h 94 % 0.0 mm
04:13 13.9 °C 13.0 °C 1016.1 hPa SSW 9.3 km/h 14.8 km/h 94 % 0.0 mm
04:18 13.9 °C 13.0 °C 1016.1 hPa SSW 10.5 km/h 14.8 km/h 94 % 0.0 mm
04:20 13.9 °C 13.0 °C 1016.1 hPa SW 13.0 km/h 14.8 km/h 94 % 0.0 mm
04:25 14.0 °C 13.0 °C 1016.1 hPa SW 1.8 km/h 14.0 km/h 93 % 0.0 mm
04:30 14.0 °C 13.0 °C 1016.1 hPa South 5.8 km/h 12.6 km/h 93 % 0.0 mm
04:35 14.0 °C 13.0 °C 1016.1 hPa WSW 11.9 km/h 16.6 km/h 93 % 0.0 mm
04:40 14.0 °C 13.0 °C 1016.1 hPa South 8.7 km/h 16.6 km/h 93 % 0.0 mm
04:45 14.0 °C 13.0 °C 1015.1 hPa West 6.1 km/h 15.4 km/h 93 % 0.0 mm
04:55 14.0 °C 13.0 °C 1015.1 hPa SW 7.9 km/h 16.6 km/h 93 % 0.0 mm
05:00 14.0 °C 13.0 °C 1015.1 hPa SSW 9.0 km/h 16.6 km/h 93 % 0.0 mm
05:05 14.0 °C 13.0 °C 1015.1 hPa SW 9.3 km/h 13.0 km/h 93 % 0.0 mm
05:11 14.0 °C 13.0 °C 1015.1 hPa SSW 6.4 km/h 16.3 km/h 93 % 0.0 mm
05:21 14.1 °C 13.0 °C 1015.1 hPa SSW 11.6 km/h 14.0 km/h 93 % 0.0 mm
05:23 14.1 °C 13.0 °C 1015.1 hPa SSW 9.7 km/h 14.0 km/h 93 % 0.0 mm
05:25 14.1 °C 13.0 °C 1015.1 hPa SSW 9.7 km/h 13.0 km/h 93 % 0.0 mm
05:28 14.1 °C 13.0 °C 1015.1 hPa SW 11.6 km/h 13.0 km/h 93 % 0.0 mm
05:33 14.1 °C 13.0 °C 1015.1 hPa WSW 10.1 km/h 13.0 km/h 93 % 0.0 mm
05:38 14.2 °C 13.0 °C 1015.1 hPa SW 9.0 km/h 15.4 km/h 93 % 0.0 mm
05:43 14.2 °C 13.0 °C 1015.1 hPa SSW 10.5 km/h 15.4 km/h 93 % 0.0 mm
05:48 14.2 °C 13.0 °C 1015.1 hPa SSW 8.7 km/h 14.0 km/h 93 % 0.0 mm
05:53 14.2 °C 13.0 °C 1015.1 hPa SSW 8.7 km/h 14.0 km/h 93 % 0.0 mm
05:58 14.2 °C 13.0 °C 1015.1 hPa WSW 9.3 km/h 14.0 km/h 93 % 0.0 mm
06:03 14.2 °C 13.0 °C 1015.1 hPa SSW 9.0 km/h 16.3 km/h 92 % 0.0 mm
06:08 14.2 °C 13.0 °C 1015.1 hPa WSW 10.1 km/h 17.7 km/h 92 % 0.0 mm
06:13 14.2 °C 13.0 °C 1015.1 hPa SSW 12.6 km/h 17.7 km/h 92 % 0.0 mm
06:18 14.2 °C 13.0 °C 1015.1 hPa SW 12.2 km/h 16.6 km/h 92 % 0.0 mm
06:23 14.2 °C 13.0 °C 1015.1 hPa WSW 6.9 km/h 16.6 km/h 92 % 0.0 mm
06:28 14.2 °C 13.0 °C 1015.1 hPa SSE 9.0 km/h 15.8 km/h 92 % 0.0 mm
06:33 14.2 °C 13.0 °C 1015.1 hPa SW 13.0 km/h 16.3 km/h 92 % 0.0 mm
06:38 14.2 °C 13.0 °C 1015.1 hPa SSW 15.8 km/h 17.2 km/h 92 % 0.0 mm
06:44 14.2 °C 13.0 °C 1015.1 hPa SW 12.2 km/h 17.2 km/h 92 % 0.0 mm
06:49 14.2 °C 13.0 °C 1015.1 hPa SSW 10.1 km/h 16.3 km/h 92 % 0.0 mm
06:54 14.2 °C 13.0 °C 1015.1 hPa South 12.6 km/h 16.3 km/h 92 % 0.0 mm
06:59 14.2 °C 13.0 °C 1015.1 hPa SW 5.0 km/h 13.7 km/h 92 % 0.0 mm
07:04 14.2 °C 13.0 °C 1014.1 hPa SE 8.7 km/h 13.7 km/h 92 % 0.0 mm
07:09 14.2 °C 13.0 °C 1014.1 hPa SSW 11.9 km/h 14.3 km/h 91 % 0.0 mm
07:14 14.2 °C 13.0 °C 1014.1 hPa SSW 14.0 km/h 15.8 km/h 91 % 0.0 mm
07:19 14.2 °C 13.0 °C 1015.1 hPa SSW 14.0 km/h 15.8 km/h 90 % 0.0 mm
07:24 14.2 °C 13.0 °C 1015.1 hPa WSW 9.7 km/h 16.6 km/h 90 % 0.0 mm
07:29 14.2 °C 13.0 °C 1015.1 hPa SW 10.1 km/h 16.6 km/h 90 % 0.0 mm
07:34 14.2 °C 13.0 °C 1016.1 hPa SSW 9.0 km/h 15.4 km/h 90 % 0.0 mm
07:39 14.3 °C 13.0 °C 1016.1 hPa WSW 9.7 km/h 15.4 km/h 89 % 0.0 mm
07:49 14.3 °C 13.0 °C 1015.1 hPa SSW 8.7 km/h 15.4 km/h 89 % 0.0 mm
07:54 14.2 °C 13.0 °C 1015.1 hPa SSW 7.6 km/h 13.7 km/h 89 % 0.0 mm
07:59 14.3 °C 13.0 °C 1015.1 hPa SSW 9.0 km/h 16.6 km/h 89 % 0.0 mm
08:04 14.3 °C 13.0 °C 1015.1 hPa SSW 7.9 km/h 16.6 km/h 89 % 0.0 mm
08:09 14.3 °C 13.0 °C 1015.1 hPa SW 6.4 km/h 16.6 km/h 89 % 0.0 mm
08:14 14.3 °C 13.0 °C 1015.1 hPa SW 5.5 km/h 14.0 km/h 89 % 0.0 mm
08:19 14.3 °C 13.0 °C 1015.1 hPa WSW 7.9 km/h 15.8 km/h 89 % 0.0 mm
08:24 14.3 °C 13.0 °C 1015.1 hPa WSW 9.7 km/h 15.8 km/h 89 % 0.0 mm
08:29 14.4 °C 13.0 °C 1015.1 hPa SSW 12.6 km/h 14.0 km/h 88 % 0.0 mm
08:34 14.4 °C 13.0 °C 1015.1 hPa SSW 9.3 km/h 13.7 km/h 88 % 0.0 mm
08:39 14.4 °C 13.0 °C 1015.1 hPa SW 11.9 km/h 13.7 km/h 88 % 0.0 mm
08:44 14.4 °C 13.0 °C 1015.1 hPa SSW 17.2 km/h 17.2 km/h 87 % 0.0 mm
08:49 14.5 °C 13.0 °C 1015.1 hPa SSW 12.2 km/h 17.2 km/h 87 % 0.0 mm
08:54 14.5 °C 13.0 °C 1015.1 hPa SW 10.1 km/h 15.8 km/h 87 % 0.0 mm
08:59 14.5 °C 13.0 °C 1015.1 hPa SW 8.7 km/h 16.9 km/h 87 % 0.0 mm
09:05 14.6 °C 13.0 °C 1015.1 hPa SW 7.9 km/h 17.2 km/h 86 % 0.0 mm
09:10 14.6 °C 13.0 °C 1015.1 hPa SSW 9.3 km/h 17.2 km/h 86 % 0.0 mm
09:15 14.6 °C 13.0 °C 1014.1 hPa WSW 10.5 km/h 16.6 km/h 86 % 0.0 mm
09:20 14.6 °C 13.0 °C 1014.1 hPa SW 14.3 km/h 16.6 km/h 86 % 0.0 mm
09:25 14.8 °C 13.0 °C 1014.1 hPa SW 10.1 km/h 16.3 km/h 86 % 0.0 mm
09:30 14.8 °C 13.0 °C 1014.1 hPa SW 9.3 km/h 16.3 km/h 85 % 0.0 mm
09:35 14.8 °C 13.0 °C 1014.1 hPa SSW 16.3 km/h 16.6 km/h 85 % 0.0 mm
09:40 14.9 °C 13.0 °C 1014.1 hPa SSW 14.0 km/h 16.6 km/h 85 % 0.0 mm
09:45 14.9 °C 13.0 °C 1015.1 hPa SW 9.3 km/h 16.3 km/h 85 % 0.0 mm
09:50 14.9 °C 13.0 °C 1015.1 hPa SSW 14.0 km/h 16.9 km/h 84 % 0.0 mm
09:55 15.0 °C 13.0 °C 1015.1 hPa WSW 17.2 km/h 19.8 km/h 84 % 0.0 mm
10:00 15.0 °C 13.0 °C 1014.1 hPa WSW 19.5 km/h 19.8 km/h 84 % 0.0 mm
10:05 15.1 °C 12.0 °C 1014.1 hPa SSW 15.8 km/h 20.6 km/h 83 % 0.0 mm
10:10 15.1 °C 12.0 °C 1014.1 hPa SSW 9.0 km/h 20.6 km/h 83 % 0.0 mm
10:15 15.1 °C 12.0 °C 1015.1 hPa SSW 16.6 km/h 20.6 km/h 83 % 0.0 mm
10:20 15.1 °C 12.0 °C 1015.1 hPa SSW 14.0 km/h 20.1 km/h 83 % 0.0 mm
10:25 15.1 °C 12.0 °C 1015.1 hPa SSW 16.6 km/h 21.9 km/h 83 % 0.0 mm
10:30 15.2 °C 13.0 °C 1015.1 hPa SSW 15.8 km/h 21.9 km/h 83 % 0.0 mm
10:35 15.2 °C 13.0 °C 1015.1 hPa SSW 14.3 km/h 21.2 km/h 83 % 0.0 mm
10:42 15.2 °C 13.0 °C 1015.1 hPa WSW 13.0 km/h 20.1 km/h 83 % 0.0 mm
10:52 15.2 °C 13.0 °C 1015.1 hPa SW 9.7 km/h 23.3 km/h 83 % 0.0 mm
10:57 15.2 °C 13.0 °C 1015.1 hPa SW 12.2 km/h 23.3 km/h 83 % 0.0 mm
11:02 15.2 °C 13.0 °C 1015.1 hPa SSW 14.0 km/h 18.3 km/h 83 % 0.0 mm
11:07 15.2 °C 13.0 °C 1015.1 hPa West 11.9 km/h 18.3 km/h 83 % 0.0 mm
11:12 15.2 °C 13.0 °C 1015.1 hPa WSW 15.4 km/h 15.4 km/h 83 % 0.0 mm
11:17 15.2 °C 13.0 °C 1015.1 hPa WSW 13.0 km/h 20.9 km/h 83 % 0.0 mm
11:22 15.2 °C 13.0 °C 1015.1 hPa WSW 14.0 km/h 20.9 km/h 83 % 0.0 mm
11:23 15.2 °C 13.0 °C 1015.1 hPa SW 10.1 km/h 20.9 km/h 83 % 0.0 mm
11:28 15.2 °C 13.0 °C 1015.1 hPa SSW 21.9 km/h 21.9 km/h 83 % 0.0 mm
11:33 15.2 °C 13.0 °C 1015.1 hPa SW 15.8 km/h 21.9 km/h 83 % 0.0 mm
11:38 15.2 °C 13.0 °C 1015.1 hPa SW 15.8 km/h 21.2 km/h 83 % 0.0 mm
11:40 15.2 °C 13.0 °C 1015.1 hPa SW 12.6 km/h 21.2 km/h 83 % 0.0 mm
11:45 15.2 °C 13.0 °C 1015.1 hPa SW 14.0 km/h 20.9 km/h 83 % 0.0 mm
11:50 15.2 °C 13.0 °C 1015.1 hPa SW 12.2 km/h 21.2 km/h 83 % 0.0 mm
11:55 15.2 °C 13.0 °C 1015.1 hPa SW 19.8 km/h 21.2 km/h 83 % 0.0 mm
12:00 15.2 °C 13.0 °C 1015.1 hPa SW 16.6 km/h 21.2 km/h 83 % 0.0 mm
12:06 15.2 °C 13.0 °C 1015.1 hPa SW 17.7 km/h 27.4 km/h 83 % 0.0 mm
12:11 15.2 °C 13.0 °C 1015.1 hPa SW 16.6 km/h 27.4 km/h 83 % 0.0 mm
12:16 15.2 °C 13.0 °C 1015.1 hPa WSW 17.2 km/h 19.5 km/h 83 % 0.0 mm
12:21 15.2 °C 13.0 °C 1015.1 hPa WSW 17.2 km/h 19.5 km/h 83 % 0.0 mm
12:26 15.2 °C 13.0 °C 1015.1 hPa SSW 12.6 km/h 17.2 km/h 83 % 0.0 mm
12:31 15.2 °C 13.0 °C 1015.1 hPa WSW 12.2 km/h 20.1 km/h 83 % 0.0 mm
12:36 15.2 °C 13.0 °C 1015.1 hPa SW 23.8 km/h 24.8 km/h 83 % 0.0 mm
12:41 17.0 °C 12.0 °C 1015.1 hPa SSW 20.1 km/h 24.8 km/h 70 % 0.0 mm
12:46 17.0 °C 12.0 °C 1014.1 hPa SW 11.9 km/h 24.8 km/h 70 % 0.0 mm
12:52 17.1 °C 12.0 °C 1014.1 hPa SSW 20.1 km/h 24.8 km/h 70 % 0.0 mm
12:57 17.0 °C 11.0 °C 1014.1 hPa SW 13.0 km/h 27.0 km/h 68 % 0.0 mm
13:02 17.0 °C 11.0 °C 1016.1 hPa WSW 15.8 km/h 27.0 km/h 68 % 0.0 mm
13:07 17.0 °C 11.0 °C 1016.1 hPa SSW 19.5 km/h 20.6 km/h 68 % 0.0 mm
13:12 17.0 °C 11.0 °C 1016.1 hPa SSW 16.6 km/h 20.9 km/h 68 % 0.0 mm
13:17 17.0 °C 11.0 °C 1015.1 hPa WSW 16.3 km/h 20.9 km/h 68 % 0.0 mm
13:22 17.0 °C 11.0 °C 1015.1 hPa WSW 21.2 km/h 21.2 km/h 68 % 0.0 mm
13:27 17.0 °C 11.0 °C 1015.1 hPa SSW 16.9 km/h 21.2 km/h 68 % 0.0 mm
13:32 17.0 °C 11.0 °C 1015.1 hPa WSW 19.8 km/h 20.6 km/h 68 % 0.0 mm
13:37 17.0 °C 11.0 °C 1015.1 hPa SSW 15.4 km/h 24.5 km/h 68 % 0.0 mm
13:42 17.0 °C 11.0 °C 1015.1 hPa SW 18.3 km/h 24.5 km/h 68 % 0.0 mm
13:47 17.0 °C 11.0 °C 1015.1 hPa SSW 12.6 km/h 19.8 km/h 68 % 0.0 mm
13:52 17.0 °C 11.0 °C 1015.1 hPa WSW 17.7 km/h 21.6 km/h 68 % 0.0 mm
13:57 17.0 °C 11.0 °C 1015.1 hPa SSW 20.6 km/h 21.6 km/h 68 % 0.0 mm
14:02 17.0 °C 11.0 °C 1015.1 hPa SW 23.8 km/h 23.8 km/h 68 % 0.0 mm
14:07 17.0 °C 11.0 °C 1015.1 hPa SW 16.6 km/h 23.8 km/h 68 % 0.0 mm
14:12 17.0 °C 11.0 °C 1015.1 hPa SW 16.3 km/h 23.8 km/h 68 % 0.0 mm
14:17 17.0 °C 11.0 °C 1015.1 hPa SW 16.9 km/h 28.5 km/h 68 % 0.0 mm
14:22 17.0 °C 11.0 °C 1015.1 hPa SW 10.5 km/h 28.5 km/h 68 % 0.0 mm
14:27 17.0 °C 11.0 °C 1015.1 hPa WSW 14.0 km/h 21.2 km/h 68 % 0.0 mm
14:32 17.0 °C 11.0 °C 1014.1 hPa WSW 22.7 km/h 28.0 km/h 68 % 0.0 mm
14:38 17.0 °C 11.0 °C 1014.1 hPa WSW 21.2 km/h 28.0 km/h 68 % 0.0 mm
14:43 16.1 °C 11.0 °C 1014.1 hPa WSW 20.6 km/h 28.5 km/h 71 % 0.0 mm
14:53 16.1 °C 11.0 °C 1014.1 hPa SW 13.7 km/h 23.0 km/h 72 % 0.0 mm
14:58 16.1 °C 11.0 °C 1014.1 hPa SW 14.0 km/h 24.8 km/h 72 % 0.0 mm
15:03 16.1 °C 11.0 °C 1015.1 hPa West 12.2 km/h 24.8 km/h 72 % 0.0 mm
15:08 16.1 °C 11.0 °C 1015.1 hPa SW 23.8 km/h 25.3 km/h 72 % 0.0 mm
15:13 15.9 °C 11.0 °C 1015.1 hPa SSW 24.5 km/h 25.3 km/h 71 % 0.0 mm
15:18 16.1 °C 11.0 °C 1014.1 hPa SW 18.0 km/h 24.5 km/h 71 % 0.0 mm
15:23 16.1 °C 11.0 °C 1014.1 hPa SSW 20.6 km/h 24.5 km/h 71 % 0.0 mm
15:28 16.2 °C 11.0 °C 1014.1 hPa SSW 28.5 km/h 30.6 km/h 70 % 0.0 mm
15:33 16.2 °C 11.0 °C 1014.1 hPa SW 15.8 km/h 30.6 km/h 70 % 0.0 mm
15:38 16.2 °C 11.0 °C 1014.1 hPa WSW 16.6 km/h 27.4 km/h 70 % 0.0 mm
15:43 16.2 °C 11.0 °C 1014.1 hPa WSW 22.7 km/h 27.4 km/h 70 % 0.0 mm
15:48 16.2 °C 11.0 °C 1014.1 hPa WSW 16.6 km/h 22.7 km/h 70 % 0.0 mm
15:53 15.8 °C 11.0 °C 1014.1 hPa SW 12.2 km/h 24.8 km/h 72 % 0.0 mm
15:58 15.8 °C 11.0 °C 1014.1 hPa SW 15.8 km/h 24.8 km/h 72 % 0.0 mm
16:03 15.8 °C 11.0 °C 1014.1 hPa SSW 19.5 km/h 24.8 km/h 72 % 0.0 mm
16:08 15.8 °C 11.0 °C 1014.1 hPa SSW 20.6 km/h 24.8 km/h 72 % 0.0 mm
16:13 15.8 °C 11.0 °C 1014.1 hPa SSW 13.0 km/h 24.5 km/h 72 % 0.0 mm
16:23 15.8 °C 11.0 °C 1013.1 hPa SW 19.8 km/h 23.3 km/h 72 % 0.0 mm
16:28 15.8 °C 11.0 °C 1013.1 hPa SSW 22.7 km/h 24.5 km/h 72 % 0.0 mm
16:33 15.8 °C 11.0 °C 1013.1 hPa SSW 19.5 km/h 24.5 km/h 72 % 0.0 mm
16:38 15.8 °C 11.0 °C 1013.1 hPa SW 14.3 km/h 21.2 km/h 72 % 0.0 mm
16:44 15.8 °C 11.0 °C 1013.1 hPa SW 10.1 km/h 23.3 km/h 72 % 0.0 mm
16:49 15.8 °C 11.0 °C 1013.1 hPa SSW 13.7 km/h 23.3 km/h 72 % 0.0 mm
16:54 15.8 °C 11.0 °C 1013.1 hPa SSW 12.6 km/h 21.6 km/h 72 % 0.0 mm
16:59 16.7 °C 11.0 °C 1013.1 hPa WSW 13.0 km/h 21.6 km/h 69 % 0.0 mm
17:04 16.7 °C 11.0 °C 1013.1 hPa West 17.7 km/h 20.1 km/h 69 % 0.0 mm
17:09 16.8 °C 11.0 °C 1013.1 hPa WSW 12.6 km/h 19.5 km/h 69 % 0.0 mm
17:14 17.3 °C 12.0 °C 1013.1 hPa SW 14.0 km/h 20.1 km/h 68 % 0.0 mm
17:19 17.2 °C 12.0 °C 1013.1 hPa SW 12.2 km/h 21.2 km/h 68 % 0.0 mm
17:24 17.0 °C 11.0 °C 1013.1 hPa SW 15.4 km/h 21.2 km/h 67 % 0.0 mm
17:29 17.0 °C 11.0 °C 1013.1 hPa SW 13.7 km/h 22.4 km/h 67 % 0.0 mm
17:34 16.7 °C 11.0 °C 1013.1 hPa SSW 12.2 km/h 22.4 km/h 69 % 0.0 mm
17:39 16.7 °C 11.0 °C 1013.1 hPa SSW 15.8 km/h 20.9 km/h 70 % 0.0 mm
17:44 16.6 °C 11.0 °C 1013.1 hPa SW 13.7 km/h 17.7 km/h 70 % 0.0 mm
17:49 16.6 °C 11.0 °C 1012.1 hPa WSW 10.8 km/h 17.7 km/h 70 % 0.0 mm
17:59 16.5 °C 12.0 °C 1012.1 hPa West 14.0 km/h 23.3 km/h 71 % 0.0 mm
18:04 16.4 °C 11.0 °C 1013.1 hPa SSW 13.0 km/h 23.3 km/h 71 % 0.0 mm
18:14 16.3 °C 12.0 °C 1013.1 hPa SW 14.0 km/h 27.0 km/h 72 % 0.0 mm
18:19 16.2 °C 12.0 °C 1013.1 hPa SSW 14.0 km/h 27.0 km/h 72 % 0.0 mm
18:24 16.1 °C 11.0 °C 1013.1 hPa SW 16.6 km/h 20.9 km/h 72 % 0.0 mm
18:29 16.1 °C 11.0 °C 1013.1 hPa SW 11.9 km/h 17.7 km/h 73 % 0.0 mm
18:39 16.0 °C 11.0 °C 1013.1 hPa WSW 11.9 km/h 17.7 km/h 73 % 0.0 mm
18:44 16.0 °C 11.0 °C 1013.1 hPa SW 15.4 km/h 17.7 km/h 73 % 0.0 mm
18:49 16.0 °C 11.0 °C 1013.1 hPa SW 9.3 km/h 16.6 km/h 73 % 0.0 mm
18:54 15.8 °C 12.0 °C 1013.1 hPa SSW 9.0 km/h 16.6 km/h 75 % 0.0 mm
18:59 15.8 °C 12.0 °C 1013.1 hPa SW 10.1 km/h 17.2 km/h 75 % 0.0 mm
19:01 15.8 °C 12.0 °C 1013.1 hPa WSW 13.7 km/h 17.2 km/h 75 % 0.0 mm
19:06 15.8 °C 12.0 °C 1013.1 hPa South 8.7 km/h 17.2 km/h 76 % 0.0 mm
19:11 15.8 °C 12.0 °C 1013.1 hPa SW 9.7 km/h 16.3 km/h 76 % 0.0 mm
19:14 15.7 °C 12.0 °C 1013.1 hPa SSW 9.7 km/h 14.0 km/h 76 % 0.0 mm
19:19 15.7 °C 12.0 °C 1013.1 hPa SW 12.2 km/h 16.3 km/h 77 % 0.0 mm
19:24 15.7 °C 12.0 °C 1013.1 hPa SSW 10.5 km/h 16.3 km/h 77 % 0.0 mm
19:29 15.7 °C 12.0 °C 1013.1 hPa SW 12.6 km/h 14.3 km/h 77 % 0.0 mm
19:34 15.7 °C 12.0 °C 1014.1 hPa SSW 8.7 km/h 13.7 km/h 78 % 0.0 mm
19:40 15.7 °C 12.0 °C 1014.1 hPa SW 9.3 km/h 12.2 km/h 78 % 0.0 mm
19:45 15.6 °C 12.0 °C 1014.1 hPa South 6.1 km/h 15.8 km/h 78 % 0.0 mm
19:50 15.6 °C 12.0 °C 1013.1 hPa SSW 8.7 km/h 15.8 km/h 78 % 0.0 mm
19:55 15.6 °C 12.0 °C 1013.1 hPa SSW 9.7 km/h 14.0 km/h 78 % 0.0 mm
20:00 15.6 °C 12.0 °C 1013.1 hPa SSW 8.7 km/h 14.3 km/h 78 % 0.0 mm
20:05 15.6 °C 12.0 °C 1013.1 hPa SSW 9.7 km/h 14.3 km/h 78 % 0.0 mm
20:10 15.6 °C 12.0 °C 1013.1 hPa SW 9.7 km/h 14.0 km/h 78 % 0.0 mm
20:15 15.6 °C 12.0 °C 1013.1 hPa SSW 14.0 km/h 16.6 km/h 78 % 0.0 mm
20:20 15.6 °C 12.0 °C 1013.1 hPa SSW 9.3 km/h 16.6 km/h 78 % 0.0 mm
20:25 15.6 °C 12.0 °C 1013.1 hPa South 12.2 km/h 15.8 km/h 78 % 0.0 mm
20:30 15.3 °C 12.0 °C 1013.1 hPa South 11.9 km/h 14.0 km/h 79 % 0.0 mm
20:35 15.4 °C 12.0 °C 1013.1 hPa SSW 9.3 km/h 14.0 km/h 80 % 0.0 mm
20:40 15.3 °C 12.0 °C 1013.1 hPa Calm   15.8 km/h 80 % 0.0 mm
20:45 15.2 °C 12.0 °C 1013.1 hPa SSW 6.1 km/h 15.8 km/h 80 % 0.0 mm
20:50 15.2 °C 12.0 °C 1013.1 hPa SW 7.2 km/h 13.7 km/h 80 % 0.0 mm
20:55 15.2 °C 12.0 °C 1013.1 hPa South 5.8 km/h 15.8 km/h 81 % 0.0 mm
21:00 15.2 °C 12.0 °C 1013.1 hPa WSW 6.4 km/h 15.8 km/h 81 % 0.0 mm
21:05 15.2 °C 12.0 °C 1013.1 hPa SW 6.4 km/h 14.0 km/h 81 % 0.0 mm
21:10 15.3 °C 12.0 °C 1013.1 hPa WSW 8.7 km/h 14.0 km/h 81 % 0.0 mm
21:15 15.3 °C 12.0 °C 1013.1 hPa WSW 10.5 km/h 14.0 km/h 81 % 0.0 mm
21:20 15.3 °C 12.0 °C 1013.1 hPa SW 11.6 km/h 15.8 km/h 81 % 0.0 mm
21:25 15.3 °C 12.0 °C 1013.1 hPa SSW 11.6 km/h 15.8 km/h 81 % 0.0 mm
21:30 15.3 °C 12.0 °C 1013.1 hPa SSW 12.6 km/h 13.0 km/h 81 % 0.0 mm
21:46 0.0 °C 12.0 °C 1013.1 hPa Calm     0 % 0.0 mm
21:51 15.4 °C 12.0 °C 1013.1 hPa South 10.8 km/h 15.1 km/h 81 % 0.0 mm
21:56 15.4 °C 12.0 °C 1013.1 hPa SW 9.3 km/h 17.2 km/h 81 % 0.0 mm
22:01 15.4 °C 12.0 °C 1013.1 hPa SSW 11.6 km/h 17.2 km/h 81 % 0.0 mm
22:06 15.4 °C 12.0 °C 1013.1 hPa SSW 9.3 km/h 20.9 km/h 81 % 0.0 mm
22:11 15.5 °C 13.0 °C 1013.1 hPa SSW 7.6 km/h 20.9 km/h 81 % 0.0 mm
22:16 15.5 °C 13.0 °C 1013.1 hPa SSW 16.9 km/h 19.1 km/h 81 % 0.0 mm
22:21 15.5 °C 13.0 °C 1013.1 hPa SSW 13.0 km/h 20.9 km/h 81 % 0.0 mm
22:26 15.5 °C 13.0 °C 1013.1 hPa SW 11.6 km/h 20.9 km/h 81 % 0.0 mm
22:31 15.5 °C 13.0 °C 1013.1 hPa SSW 13.7 km/h 17.7 km/h 81 % 0.0 mm
22:36 15.5 °C 13.0 °C 1013.1 hPa SSW 9.3 km/h 23.3 km/h 81 % 0.0 mm
22:39 15.5 °C 13.0 °C 1013.1 hPa SW 17.7 km/h 23.3 km/h 81 % 0.0 mm
22:44 15.5 °C 13.0 °C 1013.1 hPa SSW 10.1 km/h 20.9 km/h 81 % 0.0 mm
22:49 15.5 °C 13.0 °C 1013.1 hPa WSW 13.7 km/h 20.9 km/h 81 % 0.0 mm
22:54 15.5 °C 13.0 °C 1013.1 hPa SSW 12.2 km/h 24.8 km/h 81 % 0.0 mm
22:59 15.5 °C 13.0 °C 1013.1 hPa WSW 16.6 km/h 24.8 km/h 81 % 0.0 mm
23:04 15.6 °C 13.0 °C 1014.1 hPa SSW 13.0 km/h 21.2 km/h 81 % 0.0 mm
23:09 15.6 °C 13.0 °C 1014.1 hPa SSW 12.6 km/h 20.6 km/h 81 % 0.0 mm
23:14 15.6 °C 13.0 °C 1014.1 hPa SSW 14.3 km/h 20.6 km/h 82 % 0.0 mm
23:19 15.6 °C 13.0 °C 1014.1 hPa WSW 17.7 km/h 17.7 km/h 82 % 0.0 mm
23:24 15.7 °C 13.0 °C 1014.1 hPa SW 12.2 km/h 17.7 km/h 82 % 0.0 mm
23:30 15.7 °C 13.0 °C 1014.1 hPa WSW 16.3 km/h 25.3 km/h 82 % 0.0 mm
23:35 15.8 °C 13.0 °C 1014.1 hPa SSW 14.0 km/h 25.3 km/h 82 % 0.0 mm
23:40 15.8 °C 13.0 °C 1014.1 hPa SW 9.0 km/h 21.6 km/h 82 % 0.0 mm
23:45 15.9 °C 13.0 °C 1014.1 hPa SW 27.7 km/h 27.7 km/h 83 % 0.0 mm
23:50 16.0 °C 13.0 °C 1014.1 hPa SW 18.0 km/h 27.7 km/h 82 % 0.0 mm
23:55 16.1 °C 13.0 °C 1014.1 hPa WSW 10.1 km/h 20.6 km/h 82 % 0.0 mm
Le Gheer Warneton
Courtoisie de Weather Underground - 2.25 mb

Mise a jour : 18/12/2017 23:28:11
Généré par Cumulus 1.9.4 (1099)